Location: Skalnate Pleso
(49.1889°N, 20.2450°E)
Time: 18:08:46
(UTC+02:00)

Cosmos 1605 Rocket - Pass Details

Date: 25 February 2020
Orbit: 944 x 1007 km, 82.9° (Epoch: 04 April)

Event Time Altitude Azimuth Distance (km) Brightness Sun altitude
Rises 01:25:16 0° 359° (N) 3,684 7.6 -45.7°
Reaches altitude 10° 01:28:47 10° 19° (NNE) 2,719 6.9 -45.4°
Maximum altitude 01:32:47 17° 59° (ENE) 2,206 6.3 -45.0°
Enters shadow 01:32:53 17° 60° (ENE) 2,206 6.3 -45.0°
